Location: Old Broadwell Mill Observatory
(33.8015°N, 85.8137°W)
Time: 14:57:34
(UTC-05:00)

Amateur Radio Satellites - All Passes

Search period start: 21 October 2014 14:27
Search period end: 22 October 2014 14:27
Location: Old Broadwell Mill Observatory, 33.8015°N, 85.8137°W

Satellite Date Start Highest point End Downlink Frequencies (MHz)
Time Altitude Azimuth
Uribyol 2 21 Oct 14:34:55 14:40:00 54° 259° (W) 14:45:08 436.500 FM
Oscar 10/S400 21 Oct 14:35:55 14:54:42 59° 159° (SSE) 15:24:42 145.825 - 145.975 CW/USB, Beacon 145.810 USB
ISS 21 Oct 14:36:12 14:38:50 21° 326° (NW) 14:41:29 145.800 FM
Gurwin Techsat 1B 21 Oct 14:37:27 14:42:44 73° 75° (ENE) 14:48:02 435.225 FM
ITAMSAT 1 21 Oct 14:40:01 14:45:03 52° 260° (W) 14:50:09 435.822 SSB
KITSAT 1 21 Oct 14:42:18 14:48:13 22° 314° (NW) 14:54:11 435.175 FM
AO-Echo 21 Oct 14:48:26 14:52:40 31° 263° (W) 14:57:01 ?
TMSAT-1 21 Oct 14:51:11 14:56:26 72° 75° (ENE) 15:01:44 436.925 FM
SO-50 21 Oct 15:09:34 15:11:35 13° 314° (NW) 15:13:38 436.795 FM
UOSAT-12 21 Oct 15:10:08 15:14:42 70° 117° (ESE) 15:19:22 437.025 FM, 437.400 FM
Sapphire 21 Oct 15:17:08 15:21:44 29° 252° (WSW) 15:26:19 437.095 MHz 1200 baud AX-25 AFSK
AO-40 21 Oct 15:21:12 23:05:39 49° 184° (S) 05:08:49 Beacon 2401.320
AO-27 21 Oct 15:26:33 15:29:59 18° 266° (W) 15:33:26 436.795 MHz FM
AO-7 21 Oct 15:29:53 15:37:42 49° 66° (ENE) 15:45:32 29.400 - 29.500 MHz
PCSat 21 Oct 15:41:22 15:44:29 16° 256° (WSW) 15:47:36 145.825 MHz
JAS-2 21 Oct 16:17:52 16:21:34 18° 61° (ENE) 16:25:32 435.800 - 435.900 CW/SSB, 435.910 FM
Gurwin Techsat 1B 21 Oct 16:22:04 16:23:08 11° 269° (W) 16:24:12 435.225 FM
Uosat F 21 Oct 16:29:04 16:34:04 86° 256° (WSW) 16:39:07 435.120 FM
TMSAT-1 21 Oct 16:35:36 16:36:47 11° 269° (W) 16:37:59 436.925 FM
UOSAT-12 21 Oct 16:53:06 16:55:20 13° 313° (NW) 16:57:34 437.025 FM, 437.400 FM
Hamsat 21 Oct 16:53:45 16:56:29 17° 69° (ENE) 16:59:14 145.90 MHz
Saudisat 1A 21 Oct 17:10:36 17:14:41 36° 56° (NE) 17:18:45 436.775 MHz
AO-7 21 Oct 17:23:26 17:30:34 32° 262° (W) 17:37:46 29.400 - 29.500 MHz
JAS-2 21 Oct 18:00:24 18:05:53 59° 260° (W) 18:12:07 435.800 - 435.900 CW/SSB, 435.910 FM
OPAL 21 Oct 18:01:43 18:06:42 89° 105° (ESE) 18:11:38 ?
Hamsat 21 Oct 18:28:23 18:32:10 31° 263° (W) 18:35:56 145.90 MHz
Saudisat 1A 21 Oct 18:50:56 18:53:57 18° 250° (WSW) 18:56:57 436.775 MHz
SO-67 21 Oct 19:02:13 19:05:37 71° 77° (ENE) 19:09:03 435.3500 MHz FM
ISS 21 Oct 19:32:25 19:33:14 11° 26° (NNE) 19:34:04 145.800 FM
STRAND 1 21 Oct 19:40:16 19:45:27 86° 284° (WNW) 19:50:35 ?
HO-68 21 Oct 20:03:45 20:10:05 36° 66° (ENE) 20:16:27 435.675 MHz FM
RS-15 21 Oct 20:21:58 20:22:45 10° 97° (E) 20:23:32 29.354 - 29.394 USB, Beacon 29.352 USB
Oscar 11 21 Oct 20:33:20 20:34:48 12° 66° (ENE) 20:36:15 145.825 FM, Beacon 2401.500 USB
KITSAT 1 21 Oct 20:42:39 20:48:32 21° 46° (NE) 20:54:23 435.175 FM
ISS 21 Oct 21:07:05 21:10:25 77° 43° (NE) 21:13:45 145.800 FM
ZACube-1 21 Oct 21:11:37 21:14:05 14° 67° (ENE) 21:16:32 437.345 MHz
UKube-1 21 Oct 21:21:32 21:25:45 52° 74° (ENE) 21:29:59 145.840 MHz, 145.915 MHz
HO-68 21 Oct 21:51:09 21:57:38 37° 261° (W) 22:04:12 435.675 MHz FM
FUNcube-1 21 Oct 21:55:02 21:59:24 44° 74° (ENE) 22:03:44 145.950 - 145.970 MHz USB
SO-50 21 Oct 22:01:51 22:05:45 24° 52° (NE) 22:09:40 436.795 FM
Oscar 11 21 Oct 22:06:16 22:10:29 51° 260° (W) 22:14:43 145.825 FM, Beacon 2401.500 USB
RS-15 21 Oct 22:22:06 22:33:03 69° 113° (ESE) 22:43:49 29.354 - 29.394 USB, Beacon 29.352 USB
KITSAT 1 21 Oct 22:36:43 22:44:49 83° 245° (WSW) 22:52:52 435.175 FM
ZACube-1 21 Oct 22:45:36 22:50:02 47° 261° (W) 22:54:28 437.345 MHz
UKube-1 21 Oct 23:01:13 23:02:11 11° 267° (W) 23:03:08 145.840 MHz, 145.915 MHz
FUNcube-1 21 Oct 23:33:25 23:35:54 14° 267° (W) 23:38:24 145.950 - 145.970 MHz USB
SO-50 21 Oct 23:41:55 23:46:22 36° 247° (WSW) 23:50:49 436.795 FM
UOSAT-12 21 Oct 23:44:10 23:47:50 22° 51° (NE) 23:51:26 437.025 FM, 437.400 FM
MaSat-1 22 Oct 00:05:22 00:09:41 66° 111° (ESE) 00:13:41 437.345 MHz
KITSAT 1 22 Oct 00:36:07 00:38:59 12° 260° (W) 00:41:51 435.175 FM
RS-15 22 Oct 00:36:45 00:46:10 32° 315° (NW) 00:55:37 29.354 - 29.394 USB, Beacon 29.352 USB
Oscar 16 22 Oct 01:01:03 01:03:17 13° 92° (E) 01:05:30 437.025 USB, Beacon 2401.1428
AO-Echo 22 Oct 01:23:29 01:24:42 11° 91° (E) 01:25:56 ?
UOSAT-12 22 Oct 01:23:45 01:28:03 36° 247° (WSW) 01:32:15 437.025 FM, 437.400 FM
JAS-1B 22 Oct 01:48:42 01:55:04 41° 100° (E) 02:02:30 435.800 - 435.900 CW/SSB
Oscar 19 22 Oct 01:52:47 01:57:42 46° 100° (E) 02:02:35 437.125 CW, 437.150 USB
AO-27 22 Oct 02:03:05 02:07:07 22° 95° (E) 02:11:07 436.795 MHz FM
Oscar 16 22 Oct 02:37:55 02:42:57 59° 286° (WNW) 02:47:57 437.025 USB, Beacon 2401.1428
Uribyol 2 22 Oct 02:51:33 02:56:46 75° 103° (ESE) 03:01:56 436.500 FM
PCSat 22 Oct 02:54:38 02:56:30 12° 102° (ESE) 02:58:22 145.825 MHz
ITAMSAT 1 22 Oct 02:56:43 03:01:58 79° 103° (ESE) 03:07:10 435.822 SSB
Gurwin Techsat 1B 22 Oct 02:57:56 03:02:55 40° 99° (E) 03:07:52 435.225 FM
AO-Echo 22 Oct 02:58:34 03:03:53 74° 285° (WNW) 03:09:10 ?
RS-15 22 Oct 03:01:43 03:03:46 11° 349° (NNW) 03:05:50 29.354 - 29.394 USB, Beacon 29.352 USB
TMSAT-1 22 Oct 03:11:17 03:16:15 39° 99° (E) 03:21:10 436.925 FM
Oscar 19 22 Oct 03:33:19 03:36:38 18° 294° (WNW) 03:39:56 437.125 CW, 437.150 USB
AO-7 22 Oct 03:37:25 03:42:50 19° 94° (E) 03:48:14 29.400 - 29.500 MHz
OPAL 22 Oct 03:38:23 03:39:37 11° 61° (ENE) 03:40:50 ?
JAS-1B 22 Oct 03:39:44 03:45:30 32° 290° (WNW) 03:52:11 435.800 - 435.900 CW/SSB
AO-27 22 Oct 03:41:54 03:46:39 36° 289° (WNW) 03:51:22 436.795 MHz FM
Sapphire 22 Oct 04:10:59 04:16:18 65° 113° (ESE) 04:21:40 437.095 MHz 1200 baud AX-25 AFSK
PCSat 22 Oct 04:33:50 04:39:13 71° 297° (WNW) 04:44:38 145.825 MHz
Uribyol 2 22 Oct 04:33:57 04:35:32 11° 297° (WNW) 04:37:07 436.500 FM
Gurwin Techsat 1B 22 Oct 04:38:38 04:42:33 21° 293° (WNW) 04:46:29 435.225 FM
ITAMSAT 1 22 Oct 04:39:30 04:40:43 11° 298° (WNW) 04:41:57 435.822 SSB
Uosat F 22 Oct 04:40:57 04:45:42 40° 99° (E) 04:50:25 435.120 FM
TMSAT-1 22 Oct 04:51:54 04:55:51 22° 293° (WNW) 04:59:48 436.925 FM
OPAL 22 Oct 05:12:37 05:17:48 80° 255° (WSW) 05:22:57 ?
JAS-2 22 Oct 05:13:16 05:19:51 29° 94° (E) 05:26:21 435.800 - 435.900 CW/SSB, 435.910 FM
RS-15 22 Oct 05:17:10 05:23:27 16° 28° (NNE) 05:29:51 29.354 - 29.394 USB, Beacon 29.352 USB
AO-7 22 Oct 05:27:54 05:36:13 77° 289° (WNW) 05:44:31 29.400 - 29.500 MHz
Sapphire 22 Oct 05:56:53 06:00:11 16° 309° (NW) 06:03:29 437.095 MHz 1200 baud AX-25 AFSK
Hamsat 22 Oct 06:17:18 06:21:26 57° 100° (E) 06:25:34 145.90 MHz
Uosat F 22 Oct 06:20:35 06:24:09 20° 293° (WNW) 06:27:42 435.120 FM
STRAND 1 22 Oct 06:52:12 06:57:19 89° 256° (WSW) 07:02:29 ?
JAS-2 22 Oct 06:57:28 07:04:56 53° 289° (WNW) 07:12:27 435.800 - 435.900 CW/SSB, 435.910 FM
Saudisat 1A 22 Oct 07:13:53 07:17:20 23° 111° (ESE) 07:20:48 436.775 MHz
AO-7 22 Oct 07:23:43 07:27:38 14° 307° (NW) 07:31:34 29.400 - 29.500 MHz
RS-15 22 Oct 07:28:02 07:39:01 56° 56° (NE) 07:50:26 29.354 - 29.394 USB, Beacon 29.352 USB
PANSAT 22 Oct 08:00:40 08:03:21 18° 162° (SSE) 08:06:01 not established
SO-67 22 Oct 08:02:06 08:05:27 51° 284° (WNW) 08:08:48 435.3500 MHz FM
Saudisat 1A 22 Oct 08:52:56 08:56:44 28° 306° (NW) 09:00:33 436.775 MHz
UKube-1 22 Oct 09:15:43 09:17:25 12° 93° (E) 09:19:06 145.840 MHz, 145.915 MHz
HO-68 22 Oct 09:22:21 09:29:22 53° 101° (ESE) 09:36:20 435.675 MHz FM
PANSAT 22 Oct 09:39:34 09:43:04 34° 174° (S) 09:46:33 not established
RS-15 22 Oct 09:40:59 09:50:55 38° 253° (WSW) 10:01:17 29.354 - 29.394 USB, Beacon 29.352 USB
FUNcube-1 22 Oct 09:51:19 09:51:52 10° 92° (E) 09:52:25 145.950 - 145.970 MHz USB
MaSat-1 22 Oct 09:56:19 09:58:42 33° 64° (ENE) 10:00:55 437.345 MHz
Oscar 11 22 Oct 09:57:50 10:01:49 36° 98° (E) 10:05:47 145.825 FM, Beacon 2401.500 USB
ZACube-1 22 Oct 10:38:59 10:43:03 43° 99° (E) 10:47:01 437.345 MHz
UKube-1 22 Oct 10:49:36 10:53:48 46° 287° (WNW) 10:57:58 145.840 MHz, 145.915 MHz
KITSAT 1 22 Oct 11:07:50 11:13:28 21° 103° (ESE) 11:19:05 435.175 FM
HO-68 22 Oct 11:10:56 11:16:36 26° 297° (WNW) 11:22:15 435.675 MHz FM
PANSAT 22 Oct 11:19:25 11:22:53 33° 187° (S) 11:26:21 not established
FUNcube-1 22 Oct 11:24:25 11:28:32 49° 286° (WNW) 11:32:33 145.950 - 145.970 MHz USB
Oscar 11 22 Oct 11:35:07 11:37:40 16° 292° (WNW) 11:40:13 145.825 FM, Beacon 2401.500 USB
ISS 22 Oct 12:11:02 12:13:12 16° 128° (SE) 12:15:23 145.800 FM
SO-50 22 Oct 12:14:25 12:17:05 16° 108° (ESE) 12:19:47 436.795 FM
Oscar 16 22 Oct 12:14:36 12:17:10 14° 64° (ENE) 12:19:44 437.025 USB, Beacon 2401.1428
ZACube-1 22 Oct 12:17:10 12:19:00 13° 294° (WNW) 12:20:49 437.345 MHz
JAS-1B 22 Oct 12:33:10 12:37:20 20° 66° (ENE) 12:41:18 435.800 - 435.900 CW/SSB
KITSAT 1 22 Oct 13:00:02 13:08:03 70° 299° (WNW) 13:16:08 435.175 FM
PANSAT 22 Oct 13:00:03 13:02:35 17° 199° (SSW) 13:05:07 not established
Sapphire 22 Oct 13:03:32 13:07:52 24° 54° (NE) 13:12:11 437.095 MHz 1200 baud AX-25 AFSK
Oscar 19 22 Oct 13:05:49 13:10:42 45° 72° (ENE) 13:15:35 437.125 CW, 437.150 USB
AO-27 22 Oct 13:17:39 13:21:43 24° 68° (ENE) 13:25:48 436.795 MHz FM
PCSat 22 Oct 13:25:53 13:30:58 40° 59° (ENE) 13:36:01 145.825 MHz
ISS 22 Oct 13:46:34 13:49:40 36° 321° (NW) 13:52:47 145.800 FM
Oscar 16 22 Oct 13:50:51 13:55:57 61° 259° (W) 14:01:04 437.025 USB, Beacon 2401.1428
SO-50 22 Oct 13:52:58 13:57:12 42° 303° (WNW) 14:01:34 436.795 FM
UOSAT-12 22 Oct 13:53:00 13:55:30 15° 108° (ESE) 13:58:02 437.025 FM, 437.400 FM
Uribyol 2 22 Oct 14:05:25 14:10:37 76° 75° (ENE) 14:15:51 436.500 FM
AO-Echo 22 Oct 14:07:38 14:12:26 86° 257° (WSW) 14:17:25 ?
ITAMSAT 1 22 Oct 14:10:45 14:15:57 80° 76° (ENE) 14:21:11 435.822 SSB
Gurwin Techsat 1B 22 Oct 14:15:11 14:20:10 43° 72° (ENE) 14:25:10 435.225 FM
